Location: Dehesa de la Cepeda
(40.6574°N, 4.3013°W)
Time: 04:24:25
(UTC+00:00)

Explorer 11/Cluster Stage 4 - Visible Passes

Search period start: 06 August 2021 00:00
Search period end: 16 August 2021 00:00
Orbit: 467 x 1257 km, 28.8° (Epoch: 05 August)

Date Brightness Start Highest point End Pass type
(mag) Time Alt. Az. Time Alt. Az. Time Alt. Az.
09 Aug 8.8 04:47:47 10° S 04:50:14 13° SSE 04:52:53 10° SE visible
10 Aug 8.7 04:36:20 10° S 04:38:56 13° SSE 04:41:46 10° SE visible
11 Aug 8.5 04:24:59 10° S 04:27:39 14° SSE 04:30:36 10° SE visible
12 Aug 8.4 04:13:42 10° S 04:16:24 14° SSE 04:19:24 10° SE visible
13 Aug 8.2 04:03:02 12° S 04:05:10 15° SSE 04:08:10 10° SE visible
14 Aug 8.1 03:52:40 14° S 03:53:59 15° SSE 03:56:54 10° SE visible
15 Aug 8.0 03:42:20 15° S 03:42:48 15° SSE 03:45:39 10° SE visible
